Location: Borojevi?i
(45.0486°N, 16.2297°E)
Time: 06:37:54
(UTC+00:00)

Okean 1-7 - Pass Details

Date: 08 August 2020
Orbit: 590 x 619 km, 82.5° (Epoch: 26 September)

Event Time Altitude Azimuth Distance (km) Brightness Sun altitude
Rises 21:01:47 0° 350° (N) 2,880 7.6 -23.4°
Reaches altitude 10° 21:04:02 10° 350° (N) 1,966 6.6 -23.6°
Enters shadow 21:08:22 83° 265° (W) 613 2.9 -24.0°
